Regional Weather Roundup
Issued by NWS

Home | Current Version | Previous Version | Graphics & Text | Print | Product List | Glossary On
Versions: 1 2 3 4 5 6 7 8 9 10 11 12 13 14 15 16 17 18 19 20 21 22 23 24 25 26 27 28 29 30 31 32 33 34 35 36 37 38 39 40 41 42 43 44 45 46 47 48 49 50
000
ASUS45 KCYS 050810
RWRWY

WYOMING REGIONAL WEATHER ROUNDUP
NATIONAL WEATHER SERVICE CHEYENNE WY
100 AM MST THU MAR 05 2015

NOTE:  "FAIR" INDICATES FEW OR NO CLOUDS BELOW 12,000 FEET
WITH NO SIGNIFICANT WEATHER AND/OR OBSTRUCTIONS TO VISIBILITY.

WYZ001-050900-
YELLOWSTONE NATIONAL PARK

CITY           SKY/WX    TMP DP  RH WIND       PRES   REMARKS
LK YELLOWSTONE   N/A     -5 -10  79 CALM      30.20S
W YELLOWSTONE  NOT AVBL

$$
WYZ002>013-054>058-071-098>099-050900-
NORTHERN WYOMING

CITY           SKY/WX    TMP DP  RH WIND       PRES   REMARKS
JACKSON        FAIR       0  -4  85 N17       30.25R WCI -21
CODY           FAIR      19   9  63 NW3G21    30.06R
GREYBULL       FAIR      12   2  64 SE3       30.18F
WORLAND        FAIR       8   2  76 SW5       30.16F WCI   0
SHERIDAN       FAIR       0  -9  65 CALM      30.08F
BUFFALO          N/A     16  -5  39 VRB3      30.05F
GILLETTE       FAIR      17  -1  45 SW12      30.08S WCI   4
HULETT         FAIR      14   3  62 S12       30.10F WCI   0
NEWCASTLE      FAIR       5   0  78 CALM      30.19R

$$
WYZ014>020-022>026-101>103-050900-
CENTRAL WYOMING

CITY           SKY/WX    TMP DP  RH WIND       PRES   REMARKS
BIG PINEY      FAIR       7   1  76 SW3       30.20S
PINEDALE       FAIR       5  -4  66 NW15      30.19S WCI -13
DUBOIS         FAIR      14   0  52 NW25      30.10F WCI  -5
LANDER         FAIR      -1  -6  79 S3        30.11S
RIVERTON       FAIR      -2  -6  83 MISG      30.14S
CASPER         FAIR      14   4  64 SW12      30.12F WCI   0
DOUGLAS        FAIR     -11 -16  78 CALM      30.15F

$$
WYZ021-027>030-104>119-050900-
SOUTHERN WYOMING

CITY           SKY/WX    TMP DP  RH WIND       PRES   REMARKS
EVANSTON       FAIR      13   7  77 SW12      30.26S WCI  -1
FORT BRIDGER   FAIR      18   5  58 W16       30.27R WCI   3
ROCK SPRINGS   FAIR      15   8  73 SW21      30.21S WCI  -2
DIXON          FAIR       7   0  73 E3        30.30S
RAWLINS        FAIR      14   4  64 SW10      30.16R WCI   1
SARATOGA       FAIR       7   0  72 S9        30.21R WCI  -7
LARAMIE        FAIR       8  -1  66 SW12      30.10S WCI  -7
CHEYENNE       FAIR      16   0  49 W12       30.13R WCI   3
TORRINGTON     FAIR       8   1  73 S3        30.20F
PINE BLUFFS    FAIR       7   3  85 S6        30.20S WCI  -3

$$



USA.gov is the U.S. government's official web portal to all federal, state and local government web resources and services.